Location: Agadir Irigdalene
(31.2522°N, 8.7797°W)
Time: 15:18:10
(UTC+00:00)

Cosmos 1933 - Pass Details

Date: 01 December 2020
Orbit: 546 x 564 km, 82.5° (Epoch: 26 January)

Event Time Altitude Azimuth Distance (km) Brightness Sun altitude
Rises 17:59:06 0° 197° (SSW) 2,710 7.5 -6.1°
Reaches altitude 10° 18:01:18 10° 204° (SSW) 1,823 6.7 -6.5°
Maximum altitude 18:05:10 47° 278° (W) 744 4.5 -7.3°
Drops below altitude 10° 18:09:05 10° 353° (N) 1,845 5.9 -8.1°
Sets 18:11:21 0° 359° (N) 2,747 6.7 -8.6°
